Showing default

YUNHAI 2-1A, 43909

Orbit data source: Space-Track

YUNHAI 2-1A, 43909 is a payload satellite owned by CASC (CN) in LEO that was launched on Sat, 29 Dec 2018 UTC via a CHANG ZHENG 2D/YZ-3 launch vehicle from the Jiuquan Satellite Launch Center, China (JSC). Payload-class satellites include a variety of spacecraft equipped with specific instruments for various scientific and technological missions. These include communications satellites like Starlink; space stations such as the ISS; scientific satellites like the Hubble; Earth observation satellites from companies like Planet Labs, Umbra, and HawkEye 360; GPS; miniature CubeSats for education and research; and military/defense satellites.

Loading next visibility...
Identifier
43909, 2018-112A
Orbit
LEO
Country
Flag of CNCN / PRC
Related business
Manufacturer
DFH Shenzhen
Mission
Operational Defense Meteo Radio Occ.
Bus & Motor
YH-2, Unknown motor
Mass
~100 kg wet, ~100 kg dry
Launch date (UTC)
2018-12-29 (7 years ago)
Launch vehicle
CHANG ZHENG 2D/YZ-3
Launch site
Jiuquan Satellite Launch Center, China (JSC)
Object type
Payload
Rocket body
Debris
Shape & HBR
Box + 2 Pan, 0.5 m
Radar Cross Section
0.166 m², Large (>1 m²)

Expand to show TLE details & history
Last TLE update: 7 hours ago

TLE from 7 hours ago
0 YUNHAI 2-1A
1 43909U 18112A   25258.26266413  .00000173  00000-0  13180-3 0  9997
2 43909  50.0090 131.0984 0000276  12.5149 347.5773 14.28841677351771
Epoch: 2025-09-15T06:18Z
TLE epoch observation values (Epoch: 2025-09-15T06:18:14.18Z)
Latitude
-0.00004°
Longitude
42.06945°
Altitude
795.944 km
Speed
7.457 km/s
True Right ascension
08h 44m 23s
True Declination
0° 00' 00"
Sunlit
Object was in daylight at epoch
Visualization orbit readout
Latitude
Unknown
Longitude
Unknown
Altitude
Unknown
Speed
Unknown
Apparent Right ascension
Unknown
Apparent Declination
Unknown
Sunlit
N/A
Visualization observer readout
Local Sidereal Time
05:36:31
Azimuth
Unknown
Elevation
Unknown
Doppler factor
Unknown
Orbital elements
Apogee altitude
796.542 km
Perigee altitude
796.146 km
Semi-major axis
7,174.481 km
Eccentricity
0.00003
Inclination
50.009°
RAAN
131.0984°
Arg. of periapsis
12.5149°
True anomaly
347.57662°
Mean anomaly
347.5773°
Eccentric anomaly
347.57696°
Mean motion
3.57156 °/min
Orbital period
100.8 mins
BSTAR
0.0001318
Loading maneuver chart data...
Computing Atmospheric mass density...
Loading historical data...
Loading historical data...
Loading historical data...
Loading historical data...
Loading historical data...
Loading historical data...
Loading historical data...

Documentation

Showing up to 5 results
|